Location: Contre
(49.7477°N, 2.0963°E)
Time: 11:33:29
(UTC+00:00)

Meteor 2-12 Rocket - Pass Details

Date: 14 November 2025
Orbit: 935 x 957 km, 82.5° (Epoch: 05 December)

Event Time Altitude Azimuth Distance (km) Brightness Sun altitude
Rises 05:09:48 0° 129° (SE) 3,630 8.5 -18.0°
Reaches altitude 10° 05:13:38 10° 105° (ESE) 2,689 8.1 -17.4°
Maximum altitude 05:16:33 14° 76° (ENE) 2,415 7.6 -17.0°
Drops below altitude 10° 05:19:29 10° 48° (NE) 2,693 7.3 -16.5°
Sets 05:23:18 0° 24° (NNE) 3,641 7.7 -15.9°
